Ramona, CA

10:21 AM PDT on March 26, 2017 (GMT -0700)
Ramona

Weather History for KRNM - December, 2013

Change the Weather History Date:

Sunday, December 1, 2013

  Actual Average Record
Temperature  
Mean Temperature 58 °F 51 °F  
Max Temperature 78 °F 66 °F 84 °F (2008)
Min Temperature 37 °F 36 °F 21 °F (2004)
Degree Days  
Heating Degree Days 7 14  
Month to date heating degree days 7 14  
Since 1 July heating degree days 436 425  
Cooling Degree Days 0 0  
Month to date cooling degree days 0 0  
Year to date cooling degree days 898 850  
Growing Degree Days 7 (Base 50)    
Moisture  
Dew Point 29 °F    
Average Humidity 50    
Maximum Humidity 86    
Minimum Humidity 14    
Precipitation  
Precipitation 0.00 in 0.04 in 1.08 in (2007)
Month to date precipitation 0.00 0.04  
Year to date precipitation 6.42 13.85  
Since 1 July precipitation 1.92  
Snow  
Snow 0.00 in - - ()
Month to date snowfall 0.0  
Year to date snowfall 0.0  
Snow Depth 0.00 in    
Sea Level Pressure  
Sea Level Pressure 30.14 in    
Wind  
Wind Speed 5 mph (ENE)    
Max Wind Speed 18 mph    
Max Gust Speed 22 mph    
Visibility 10 miles    
Events      
T = Trace of Precipitation, MM = Missing Value Source: NWS Daily Summary

Daily Weather History Graph

Daily Weather History Graph

Search for Another Location

Airport or City:

Trip Planner

Search our weather history database for the weather conditions in past years. The results will help you decide how hot, cold, wet, or windy it might be!

Date:

Astronomy

Dec. 01, 2013 Rise Set
Actual Time 6:32 AM PST 4:40 PM PST
Civil Twilight 6:05 AM PST 5:07 PM PST
Nautical Twilight 5:35 AM PST 5:38 PM PST
Astronomical Twilight 5:05 AM PST 6:08 PM PST
Moon 4:59 AM PST (12/1) 3:51 PM PST (12/1)
Length of Visible Light 11h 01m
Length of Day
10h 07m
Waning Crescent, 2% of the Moon is Illuminated
Dec 1
Waning Crescent
Dec 2
New
Dec 9
First Quarter
Dec 17
Full
Dec 25
Last Quarter

Hourly Weather History & Observations

Time (PST) Temp. Windchill Dew Point Humidity Pressure Visibility Wind Dir Wind Speed Gust Speed Precip Events Conditions
12:53 AM 41.0 °F - 37.0 °F 86% 30.15 in 7.0 mi Calm Calm - N/A   Clear
1:53 AM 43.0 °F - 37.0 °F 80% 30.14 in 10.0 mi Calm Calm - N/A   Clear
2:53 AM 41.0 °F - 36.0 °F 82% 30.14 in 10.0 mi Calm Calm - N/A   Clear
3:53 AM 39.9 °F - 35.1 °F 83% 30.15 in 10.0 mi Calm Calm - N/A   Clear
4:53 AM 39.0 °F - 35.1 °F 86% 30.17 in 10.0 mi Calm Calm - N/A   Clear
5:53 AM 37.9 °F - 34.0 °F 86% 30.18 in 10.0 mi Calm Calm - N/A   Clear
6:53 AM 39.9 °F - 35.1 °F 83% 30.19 in 10.0 mi Calm Calm - N/A   Clear
7:53 AM 46.9 °F - 39.0 °F 74% 30.19 in 10.0 mi Calm Calm - N/A   Clear
8:53 AM 68.0 °F - 37.9 °F 33% 30.19 in 10.0 mi NNE 6.9 mph - N/A   Clear
9:53 AM 72.0 °F - 30.9 °F 22% 30.18 in 10.0 mi NNE 9.2 mph - N/A   Clear
10:53 AM 75.9 °F - 26.1 °F 16% 30.17 in 10.0 mi East 9.2 mph - N/A   Clear
11:53 AM 77.0 °F - 26.1 °F 15% 30.13 in 10.0 mi East 13.8 mph - N/A   Clear
12:53 PM 77.0 °F - 25.0 °F 15% 30.12 in 10.0 mi East 13.8 mph - N/A   Clear
1:53 PM 77.0 °F - 26.1 °F 15% 30.10 in 10.0 mi East 16.1 mph 21.9 mph N/A   Clear
2:53 PM 75.9 °F - 24.1 °F 15% 30.09 in 10.0 mi East 11.5 mph - N/A   Clear
3:53 PM 73.0 °F - 23.0 °F 15% 30.11 in 10.0 mi ENE 12.7 mph - N/A   Clear
4:53 PM 68.0 °F - 24.1 °F 19% 30.12 in 10.0 mi ENE 8.1 mph - N/A   Clear
5:53 PM 66.0 °F - 25.0 °F 21% 30.13 in 10.0 mi ENE 8.1 mph - N/A   Clear
6:53 PM 61.0 °F - 25.0 °F 25% 30.14 in 10.0 mi NNE 8.1 mph - N/A   Clear
7:53 PM 60.1 °F - 24.1 °F 25% 30.16 in 10.0 mi ENE 10.4 mph - N/A   Clear
8:53 PM 51.1 °F - 25.0 °F 36% 30.14 in 10.0 mi Calm Calm - N/A   Clear
9:53 PM 46.9 °F - 25.0 °F 42% 30.14 in 10.0 mi SE 4.6 mph - N/A   Clear
10:53 PM 48.0 °F - 24.1 °F 39% 30.13 in 10.0 mi Calm Calm - N/A   Clear
11:53 PM 42.1 °F 40.2 °F 25.0 °F 51% 30.12 in 10.0 mi ESE 3.5 mph - N/A   Clear